Location: Eymir
(36.7333°N, 29.7833°E)
Time: 18:35:49
(UTC+00:00)

SL-12 R/B(2) - Pass Details

Date: 14 January 2026
Orbit: 1171 x 2178 km, 63.4° (Epoch: 17 February)

Event Time Altitude Azimuth Distance (km) Brightness Sun altitude
Rises 03:34:45 0° 204° (SSW) 4,078 6.6 -19.3°
Reaches altitude 10° 03:37:19 10° 203° (SSW) 3,165 6.1 -18.8°
Maximum altitude 03:44:49 78° 118° (ESE) 1,379 4.3 -17.4°
Drops below altitude 10° 03:53:52 10° 34° (NE) 3,766 6.8 -15.6°
Sets 03:57:11 0° 34° (NE) 4,898 7.4 -15.0°
